| time (UTC) | temp C | wind direction | speed KPH | gust KPH | rain 1hr cm | rain 24hr cm | rain mn cm | humidity % | barometer mb |
| 20260505201301 | 15 | 320 | 1.6 | 1.6 | 0.00 | 0.00 | 2.72 | 92 | 1013.2 |
| 20260505195801 | 15 | 227 | 1.6 | 1.6 | 0.00 | 0.00 | 2.72 | 93 | 1013.0 |
| 20260505194301 | 15 | 102 | 4.8 | 4.8 | 0.00 | 0.00 | 2.72 | 95 | 1013.0 |
| 20260505192800 | 15 | 173 | 1.6 | 3.2 | 0.00 | 0.00 | 2.72 | 95 | 1012.8 |
| 20260505191300 | 15 | 140 | 3.2 | 4.8 | 0.00 | 0.00 | 2.72 | 95 | 1012.6 |
| 20260505185800 | 15 | 258 | 1.6 | 1.6 | 0.00 | 0.00 | 2.72 | 95 | 1012.5 |
| 20260505184300 | 15 | 212 | 8.0 | 9.7 | 0.00 | 0.00 | 2.72 | 96 | 1012.5 |
| 20260505182759 | 15 | 228 | 6.4 | 8.0 | 0.00 | 0.00 | 2.72 | 95 | 1012.7 |
| 20260505181259 | 15 | 200 | 9.7 | 11.3 | 0.00 | 0.00 | 2.72 | 95 | 1012.6 |
| 20260505175759 | 15 | 215 | 8.0 | 9.7 | 0.00 | 0.00 | 2.72 | 95 | 1012.9 |
| 20260505174259 | 15 | 189 | 6.4 | 8.0 | 0.00 | 0.00 | 2.72 | 95 | 1012.4 |
| 20260505172759 | 16 | 205 | 6.4 | 9.7 | 0.00 | 0.00 | 2.72 | 96 | 1012.4 |
| 20260505171259 | 16 | 230 | 9.7 | 11.3 | 0.00 | 0.00 | 2.72 | 94 | 1012.3 |
| 20260505165759 | 16 | 225 | 9.7 | 12.9 | 0.00 | 0.00 | 2.72 | 91 | 1012.4 |
| 20260505164258 | 16 | 249 | 9.7 | 12.9 | 0.00 | 0.00 | 2.72 | 90 | 1012.2 |
| 20260505162758 | 16 | 229 | 8.0 | 9.7 | 0.00 | 0.00 | 2.72 | 90 | 1012.7 |
| 20260505161258 | 17 | 206 | 11.3 | 12.9 | 0.00 | 0.00 | 2.72 | 88 | 1012.7 |
| 20260505152757 | 16 | 224 | 9.7 | 12.9 | 0.00 | 0.00 | 2.72 | 93 | 1012.8 |
| 20260505151257 | 16 | 197 | 11.3 | 12.9 | 0.00 | 0.00 | 2.72 | 91 | 1012.8 |
| 20260505124256 | 17 | 229 | 6.4 | 8.0 | 0.00 | 0.00 | 2.72 | 87 | 1013.0 |
| 20260505122756 | 17 | 264 | 9.7 | 12.9 | 0.00 | 0.00 | 2.72 | 89 | 1013.0 |
| 20260505121255 | 16 | 198 | 14.5 | 14.5 | 0.00 | 0.00 | 2.72 | 89 | 1013.0 |
| 20260505115755 | 17 | 267 | 8.0 | 12.9 | 0.00 | 0.00 | 2.72 | 86 | 1012.9 |
| 20260505114255 | 17 | 184 | 11.3 | 14.5 | 0.00 | 0.00 | 2.72 | 88 | 1012.9 |
| 20260505112755 | 17 | 179 | 19.3 | 24.1 | 0.00 | 0.00 | 2.72 | 89 | 1012.9 |
| 20260505111254 | 17 | 194 | 17.7 | 24.1 | 0.00 | 0.00 | 2.72 | 89 | 1012.8 |
| 20260505101252 | 17 | 268 | 0.0 | 1.6 | 0.00 | 0.00 | 2.72 | 87 | 1012.6 |
| 20260505095752 | 16 | 264 | 1.6 | 3.2 | 0.00 | 0.00 | 2.72 | 99 | 1012.7 |
| 20260505094252 | 15 | 204 | 3.2 | 3.2 | 0.00 | 0.00 | 2.72 | 99 | 1012.1 |
| 20260505092751 | 13 | 350 | 4.8 | 6.4 | 0.00 | 0.00 | 2.72 | 99 | 1012.3 |
| 20260505091251 | 12 | 256 | 4.8 | 6.4 | 0.00 | 0.00 | 2.72 | 99 | 1012.2 |
| 20260505085751 | 12 | 49 | 4.8 | 6.4 | 0.00 | 0.00 | 2.72 | 99 | 1012.3 |
| 20260505084250 | 12 | 52 | 4.8 | 6.4 | 0.00 | 0.00 | 2.72 | 99 | 1012.1 |
| 20260505082750 | 12 | 38 | 3.2 | 4.8 | 0.00 | 0.00 | 2.72 | 99 | 1012.1 |
| 20260505081250 | 12 | 290 | 3.2 | 4.8 | 0.00 | 0.00 | 2.72 | 99 | 1011.8 |
| 20260505075750 | 11 | 68 | 12.9 | 19.3 | 0.00 | 0.00 | 2.72 | 99 | 1011.9 |
| 20260505074250 | 12 | 43 | 9.7 | 12.9 | 0.00 | 0.00 | 2.72 | 99 | 1012.1 |
| 20260505072750 | 11 | 343 | 3.2 | 3.2 | 0.00 | 0.00 | 2.72 | 99 | 1012.3 |
| 20260505071250 | 11 | 18 | 6.4 | 9.7 | 0.30 | 0.00 | 2.72 | 99 | 1012.0 |
| 20260505065750 | 11 | 316 | 6.4 | 8.0 | 0.48 | 0.00 | 2.67 | 99 | 1012.0 |
| 20260505064249 | 11 | 35 | 8.0 | 11.3 | 1.09 | 0.00 | 2.54 | 99 | 1012.2 |
| 20260505062749 | 12 | 268 | 0.0 | 0.0 | 1.37 | 0.00 | 2.29 | 99 | 1012.1 |
| 20260505061248 | 12 | 230 | 14.5 | 19.3 | 1.50 | 0.00 | 1.88 | 99 | 1012.0 |
| 20260505055748 | 12 | 10 | 6.4 | 8.0 | 0.48 | 0.00 | 1.55 | 99 | 1011.2 |
| 20260505054248 | 12 | 88 | 6.4 | 8.0 | 0.18 | 0.00 | 1.45 | 99 | 1010.9 |
| 20260505052747 | 11 | 28 | 11.3 | 12.9 | 0.30 | 0.00 | 1.40 | 99 | 1010.7 |
| 20260505051247 | 11 | 71 | 6.4 | 9.7 | 0.43 | 0.00 | 1.32 | 99 | 1010.8 |
| 20260505041245 | 11 | 21 | 4.8 | 6.4 | 0.30 | 0.00 | 0.81 | 99 | 1011.9 |
| 20260505035745 | 11 | 64 | 9.7 | 11.3 | 0.13 | 0.00 | 0.76 | 99 | 1011.7 |
| 20260505034245 | 11 | 88 | 6.4 | 8.0 | 0.66 | 0.00 | 0.69 | 99 | 1011.8 |
| 20260505032744 | 11 | 45 | 8.0 | 9.7 | 0.00 | 0.00 | 0.58 | 99 | 1012.2 |
| 20260505031244 | 11 | 12 | 9.7 | 12.9 | 0.00 | 0.00 | 0.58 | 99 | 1012.4 |
| 20260505025743 | 11 | 313 | 3.2 | 4.8 | 0.30 | 0.00 | 0.56 | 99 | 1012.5 |
| 20260505024243 | 11 | 74 | 6.4 | 8.0 | 0.43 | 0.00 | 0.48 | 98 | 1012.9 |
| 20260505022743 | 12 | 258 | 0.0 | 1.6 | 0.79 | 0.00 | 0.38 | 98 | 1013.1 |
| 20260505021242 | 12 | 328 | 3.2 | 4.8 | 0.30 | 0.00 | 0.23 | 96 | 1013.4 |
| 20260505015742 | 12 | 332 | 4.8 | 4.8 | 0.13 | 0.00 | 0.15 | 94 | 1013.3 |
| 20260505014242 | 12 | 41 | 4.8 | 6.4 | 0.18 | 0.00 | 0.13 | 92 | 1013.6 |
| 20260505012741 | 12 | 31 | 3.2 | 3.2 | 0.13 | 0.00 | 0.10 | 89 | 1013.9 |
| 20260505011241 | 13 | 291 | 1.6 | 1.6 | 0.13 | 0.00 | 0.05 | 85 | 1014.2 |
| 20260505005740 | 13 | 335 | 1.6 | 1.6 | 0.18 | 0.00 | 0.03 | 83 | 1014.4 |
| 20260505004240 | 13 | 346 | 1.6 | 1.6 | 0.00 | 0.00 | 0.00 | 84 | 1014.6 |
| 20260505002740 | 14 | 249 | 1.6 | 1.6 | 0.00 | 0.00 | 0.00 | 80 | 1014.9 |
| 20260505001239 | 15 | 245 | 1.6 | 1.6 | 0.00 | 0.00 | 0.00 | 78 | 1015.1 |
| 20260504235739 | 15 | 293 | 1.6 | 3.2 | 0.00 | 0.00 | 0.00 | 76 | 1015.1 |
| 20260504234238 | 15 | 226 | 1.6 | 1.6 | 0.00 | 0.00 | 0.00 | 76 | 1015.6 |
| 20260504232738 | 15 | 244 | 0.0 | 1.6 | 0.00 | 0.00 | 0.00 | 76 | 1015.3 |
| 20260504231238 | 15 | 250 | 1.6 | 3.2 | 0.00 | 0.00 | 0.00 | 76 | 1015.8 |
| 20260504225737 | 14 | 275 | 1.6 | 1.6 | 0.00 | 0.00 | 0.00 | 79 | 1016.0 |
| 20260504224237 | 14 | 37 | 3.2 | 3.2 | 0.00 | 0.00 | 0.00 | 79 | 1016.2 |
| 20260504222737 | 14 | 36 | 3.2 | 4.8 | 0.00 | 0.00 | 0.00 | 78 | 1016.5 |
| 20260504221236 | 14 | 10 | 4.8 | 6.4 | 0.00 | 0.00 | 0.00 | 79 | 1016.7 |
| 20260504215736 | 15 | 115 | 3.2 | 4.8 | 0.00 | 0.00 | 0.00 | 78 | 1017.0 |
| 20260504214235 | 15 | 267 | 3.2 | 3.2 | 0.00 | 0.00 | 0.00 | 79 | 1017.4 |
| 20260504212735 | 14 | 317 | 1.6 | 1.6 | 0.00 | 0.00 | 0.00 | 80 | 1017.4 |
| 20260504211235 | 15 | 245 | 1.6 | 1.6 | 0.00 | 0.00 | 0.00 | 79 | 1017.6 |
| 20260504205734 | 15 | 218 | 1.6 | 1.6 | 0.00 | 0.00 | 0.00 | 80 | 1017.7 |
| 20260504204234 | 15 | 284 | 0.0 | 1.6 | 0.00 | 0.00 | 0.00 | 82 | 1017.4 |
| 20260504202733 | 15 | 74 | 3.2 | 4.8 | 0.00 | 0.00 | 0.00 | 81 | 1017.5 |